When you browse on this site, cookies collect data to enhance your experience and personalize the content and advertising you see.
Visit our Privacy Policy to learn more. By continuing to use the site, you agree to this use of cookies and data.
  • In Hungary
  • List of Countries
  • For 7 days
  • Water Temperature
  • Satellite Maps
  • Weather Map
  • News
  • Weather Widgets
  • user-avatar
    Login

    Hourly Weather Saidpur

    Today, 11 December, Tuesday

    Time Temperature Precipitation Wind Pressure Humidity
    00:00 +20°C° 0 mm 2 mps 757 mmHg 56%
    01:00 +19°C° 0 mm 2 mps 757 mmHg 57%
    02:00 +19°C° 0 mm 2 mps 757 mmHg 58%
    03:00 +18°C° 0 mm 2 mps 757 mmHg 59%
    04:00 +18°C° 0 mm 2 mps 757 mmHg 59%
    05:00 +18°C° 0 mm 2 mps 757 mmHg 58%
    06:00 +17°C° 0 mm 2 mps 757 mmHg 58%
    07:00 +19°C° 0 mm 2 mps 758 mmHg 54%
    08:00 +20°C° 0 mm 3 mps 758 mmHg 49%
    09:00 +21°C° 0 mm 3 mps 759 mmHg 45%
    10:00 +24°C° 0 mm 3 mps 759 mmHg 43%
    11:00 +26°C° 0 mm 3 mps 758 mmHg 40%
    12:00 +27°C° 0 mm 3 mps 758 mmHg 38%
    13:00 +27°C° 0 mm 2 mps 758 mmHg 36%
    14:00 +28°C° 0 mm 2 mps 757 mmHg 35%
    15:00 +28°C° 0 mm 1 mps 756 mmHg 34%
    16:00 +27°C° 0 mm 2 mps 756 mmHg 36%
    17:00 +26°C° 0 mm 2 mps 756 mmHg 39%
    18:00 +25°C° 0 mm 2 mps 756 mmHg 42%
    19:00 +24°C° 0 mm 2 mps 757 mmHg 45%
    20:00 +23°C° 0 mm 2 mps 757 mmHg 47%
    21:00 +21°C° 0 mm 2 mps 758 mmHg 50%
    22:00 +21°C° 0 mm 2 mps 758 mmHg 52%
    23:00 +20°C° 0 mm 2 mps 758 mmHg 53%

    Tomorrow, 12 December, Wednesday

    Time Temperature Precipitation Wind Pressure Humidity
    00:00 +20°C° 0 mm 2 mps 758 mmHg 55%
    01:00 +19°C° 0 mm 2 mps 758 mmHg 53%
    02:00 +19°C° 0 mm 2 mps 758 mmHg 52%
    03:00 +18°C° 0 mm 2 mps 758 mmHg 51%
    04:00 +18°C° 0 mm 2 mps 758 mmHg 49%
    05:00 +18°C° 0 mm 2 mps 758 mmHg 47%
    06:00 +17°C° 0 mm 2 mps 758 mmHg 45%
    07:00 +18°C° 0 mm 3 mps 759 mmHg 42%
    08:00 +20°C° 0 mm 3 mps 759 mmHg 39%
    09:00 +21°C° 0 mm 4 mps 760 mmHg 36%
    10:00 +23°C° 0 mm 4 mps 760 mmHg 34%
    11:00 +26°C° 0 mm 4 mps 760 mmHg 32%
    12:00 +27°C° 0 mm 4 mps 760 mmHg 30%
    13:00 +28°C° 0 mm 3 mps 759 mmHg 30%
    14:00 +28°C° 0 mm 3 mps 758 mmHg 29%
    15:00 +28°C° 0 mm 3 mps 757 mmHg 28%
    16:00 +27°C° 0 mm 2 mps 757 mmHg 31%
    17:00 +25°C° 0 mm 2 mps 757 mmHg 34%
    18:00 +24°C° 0 mm 2 mps 757 mmHg 37%
    19:00 +23°C° 0 mm 2 mps 758 mmHg 38%
    20:00 +21°C° 0 mm 2 mps 759 mmHg 39%
    21:00 +21°C° 0 mm 2 mps 759 mmHg 41%
    22:00 +20°C° 0 mm 2 mps 759 mmHg 42%
    23:00 +19°C° 0 mm 2 mps 759 mmHg 43%

    Day after tomorrow, 13 December, Thursday

    Time Temperature Precipitation Wind Pressure Humidity
    00:00 +19°C° 0 mm 2 mps 759 mmHg 44%
    01:00 +19°C° 0 mm 2 mps 759 mmHg 44%
    02:00 +18°C° 0 mm 2 mps 759 mmHg 44%
    03:00 +18°C° 0 mm 2 mps 759 mmHg 44%
    04:00 +17°C° 0 mm 2 mps 759 mmHg 43%
    05:00 +17°C° 0 mm 2 mps 759 mmHg 43%
    06:00 +17°C° 0 mm 2 mps 759 mmHg 42%
    07:00 +18°C° 0 mm 3 mps 760 mmHg 40%
    08:00 +20°C° 0 mm 3 mps 760 mmHg 37%
    09:00 +21°C° 0 mm 3 mps 761 mmHg 35%
    10:00 +24°C° 0 mm 3 mps 761 mmHg 32%
    11:00 +26°C° 0 mm 3 mps 761 mmHg 29%
    12:00 +27°C° 0 mm 4 mps 760 mmHg 26%
    13:00 +28°C° 0 mm 3 mps 759 mmHg 25%
    14:00 +28°C° 0 mm 3 mps 759 mmHg 24%
    15:00 +28°C° 0 mm 2 mps 758 mmHg 23%
    16:00 +27°C° 0 mm 2 mps 758 mmHg 26%
    17:00 +25°C° 0 mm 2 mps 758 mmHg 29%
    18:00 +23°C° 0 mm 2 mps 758 mmHg 32%
    19:00 +23°C° 0 mm 1 mps 759 mmHg 33%
    20:00 +22°C° 0 mm 1 mps 759 mmHg 35%
    21:00 +22°C° 0 mm 1 mps 760 mmHg 37%
    22:00 +21°C° 0 mm 1 mps 760 mmHg 38%
    23:00 +20°C° 0 mm 1 mps 760 mmHg 39%

    14 December, Friday

    Time Temperature Precipitation Wind Pressure Humidity
    00:00 +19°C° 0 mm 2 mps 760 mmHg 41%
    01:00 +18°C° 0 mm 2 mps 759 mmHg 42%
    02:00 +18°C° 0 mm 2 mps 759 mmHg 42%
    03:00 +18°C° 0 mm 2 mps 759 mmHg 43%
    04:00 +17°C° 0 mm 2 mps 759 mmHg 44%
    05:00 +17°C° 0 mm 2 mps 759 mmHg 44%
    06:00 +17°C° 0 mm 2 mps 759 mmHg 45%
    07:00 +18°C° 0 mm 2 mps 760 mmHg 42%
    08:00 +19°C° 0 mm 2 mps 761 mmHg 39%
    09:00 +21°C° 0 mm 2 mps 761 mmHg 36%
    10:00 +23°C° 0 mm 2 mps 761 mmHg 32%
    11:00 +25°C° 0 mm 2 mps 761 mmHg 28%
    12:00 +27°C° 0 mm 2 mps 760 mmHg 25%
    13:00 +27°C° 0 mm 2 mps 760 mmHg 24%
    14:00 +28°C° 0 mm 2 mps 759 mmHg 23%
    15:00 +28°C° 0 mm 2 mps 759 mmHg 22%
    16:00 +27°C° 0 mm 2 mps 759 mmHg 24%
    17:00 +25°C° 0 mm 2 mps 759 mmHg 27%
    18:00 +23°C° 0 mm 2 mps 759 mmHg 29%
    19:00 +23°C° 0 mm 2 mps 760 mmHg 30%
    20:00 +21°C° 0 mm 2 mps 760 mmHg 31%
    21:00 +20°C° 0 mm 2 mps 761 mmHg 33%
    22:00 +20°C° 0 mm 2 mps 761 mmHg 34%
    23:00 +19°C° 0 mm 2 mps 761 mmHg 35%

    15 December, Saturday

    Time Temperature Precipitation Wind Pressure Humidity
    00:00 +19°C° 0 mm 2 mps 761 mmHg 35%
    01:00 +18°C° 0 mm 2 mps 761 mmHg 36%
    02:00 +18°C° 0 mm 2 mps 760 mmHg 36%
    03:00 +17°C° 0 mm 2 mps 760 mmHg 36%
    04:00 +17°C° 0 mm 2 mps 760 mmHg 36%
    05:00 +16°C° 0 mm 2 mps 760 mmHg 36%
    06:00 +16°C° 0 mm 2 mps 760 mmHg 36%
    07:00 +17°C° 0 mm 2 mps 761 mmHg 34%
    08:00 +19°C° 0 mm 2 mps 762 mmHg 32%
    09:00 +20°C° 0 mm 2 mps 762 mmHg 29%
    10:00 +23°C° 0 mm 2 mps 762 mmHg 27%
    11:00 +25°C° 0 mm 3 mps 762 mmHg 24%
    12:00 +27°C° 0 mm 3 mps 761 mmHg 21%
    13:00 +27°C° 0 mm 3 mps 761 mmHg 21%
    14:00 +28°C° 0 mm 3 mps 760 mmHg 21%
    15:00 +28°C° 0 mm 2 mps 759 mmHg 20%
    16:00 +26°C° 0 mm 2 mps 760 mmHg 23%
    17:00 +25°C° 0 mm 2 mps 760 mmHg 26%
    18:00 +23°C° 0 mm 1 mps 760 mmHg 28%
    19:00 +23°C° 0 mm 1 mps 761 mmHg 30%
    20:00 +22°C° 0 mm 1 mps 761 mmHg 31%
    21:00 +21°C° 0 mm 1 mps 762 mmHg 33%
    22:00 +20°C° 0 mm 2 mps 762 mmHg 34%
    23:00 +19°C° 0 mm 2 mps 762 mmHg 34%

    16 December, Sunday

    Time Temperature Precipitation Wind Pressure Humidity
    00:00 +19°C° 0 mm 2 mps 762 mmHg 35%
    01:00 +19°C° 0 mm 2 mps 762 mmHg 35%
    02:00 +18°C° 0 mm 2 mps 761 mmHg 36%
    03:00 +18°C° 0 mm 2 mps 761 mmHg 36%
    04:00 +18°C° 0 mm 2 mps 761 mmHg 35%
    05:00 +18°C° 0 mm 2 mps 761 mmHg 34%
    06:00 +18°C° 0 mm 2 mps 761 mmHg 34%
    07:00 +18°C° 0 mm 2 mps 762 mmHg 33%
    08:00 +19°C° 0 mm 3 mps 762 mmHg 32%
    09:00 +19°C° 0 mm 3 mps 763 mmHg 32%
    10:00 +20°C° 0 mm 3 mps 762 mmHg 30%
    11:00 +21°C° 0 mm 3 mps 762 mmHg 29%
    12:00 +22°C° 0 mm 3 mps 762 mmHg 28%
    13:00 +24°C° 0 mm 2 mps 761 mmHg 27%
    14:00 +25°C° 0 mm 2 mps 760 mmHg 26%
    15:00 +25°C° 0 mm 2 mps 760 mmHg 25%
    16:00 +24°C° 0 mm 2 mps 760 mmHg 27%
    17:00 +23°C° 0 mm 2 mps 760 mmHg 28%
    18:00 +21°C° 0 mm 2 mps 760 mmHg 29%
    19:00 +21°C° 0 mm 2 mps 760 mmHg 29%
    20:00 +21°C° 0 mm 2 mps 761 mmHg 29%
    21:00 +20°C° 0 mm 2 mps 761 mmHg 29%
    22:00 +20°C° 0 mm 2 mps 761 mmHg 29%
    23:00 +20°C° 0 mm 2 mps 761 mmHg 29%
    Show more